COSMOS 2251 DEB, 33791

Orbit data source: Space-Track

COSMOS 2251 DEB, 33791 is space debris in LEO originally from a launch on Wed, 16 Jun 1993 UTC launched from the Plesetsk Missile And Space Complex (PKMTR). The debris from Iridium 33, an American commercial communications satellite, has been tracked extensively since its accidental collision with the defunct Russian satellite Cosmos 2251 in 2009. This event, occurring at high speed in low Earth orbit (LEO), generated thousands of pieces of space debris, significantly increasing the risk of further collisions. The Iridium 33 debris cloud has impacted space traffic management and orbital debris mitigation strategies, making it a subject of ongoing study in space situational awareness.

Loading next visibility...
Identifier
33791, 1993-036AG
Orbit
LEO
Country
Flag of CISCIS
Related business
Manufacturer
Unknown
Mission
Spacecraft
Bus & Motor
Unknown
Mass
Unknown
Launch date (UTC)
1993-06-16 (33 years ago)
Launch vehicle
Unknown
Launch site
Plesetsk Missile And Space Complex (PKMTR)
Object type
Payload
Rocket body
Debris
Shape & HBR
Unknown shape, 0.3 m
Radar Cross Section
Medium (>0.1 m² and <1 m²)

Expand to show TLE details & history
Last TLE update: 1 day ago

TLE from 1 day ago
0 COSMOS 2251 DEB
1 33791U 93036AG  26262.66789816  .00001440  00000-0  42421-3 0  9998
2 33791  74.1712 239.6681 0028799 345.2906 188.6810 14.44265017921060
Epoch: 2026-09-19T16:01Z
TLE epoch observation values (Epoch: 2026-09-19T16:01:46.401Z)
Latitude
5.77124°
Longitude
179.01837°
Altitude
766.788 km
Speed
7.461 km/s
True Right ascension
03h 52m 08s
True Declination
5° 44' 13"
Sunlit
Object was in full shadow at epoch
Visualization orbit readout
Latitude
Unknown
Longitude
Unknown
Altitude
Unknown
Speed
Unknown
Apparent Right ascension
Unknown
Apparent Declination
Unknown
Sunlit
N/A
Visualization observer readout
Local Sidereal Time
09:48:12
Azimuth
Unknown
Elevation
Unknown
Doppler factor
Unknown
Orbital elements
Apogee altitude
762.55 km
Perigee altitude
721.539 km
Semi-major axis
7,120.182 km
Eccentricity
0.00288
Inclination
74.1712°
RAAN
239.6681°
Arg. of periapsis
345.2906°
True anomaly
188.63137°
Mean anomaly
188.681°
Eccentric anomaly
188.65617°
Mean motion
3.61249 °/min
Orbital period
99.65 mins
BSTAR
0.00042421

Documentation

Showing up to 5 results
|